Showing default

QIANFAN-24, 61557

Orbit data source: Space-Track

QIANFAN-24, 61557 is a Chinese payload satellite in LEO that was launched on Tue, 15 Oct 2024 UTC via a CHANG ZHENG 6A launch vehicle from the Taiyaun Space Center, China (TSC). Payloads include a variety of satellites, spacecraft, and rockets equipped with specific instruments for various scientific and technological missions. These include communications satellites like Starlink; space stations such as the ISS; scientific satellites like the Hubble; Earth observation satellites from companies like Planet Labs, Umbra, and HawkEye 360; GPS; miniature CubeSats for education and research; and military/defense satellites.

Loading next visibility...
QIANFAN-24 details
Identifier
61557, 2024-185F
Orbit
LEO
Last TLE update15 hours ago
Origin
Flag of CNYUANX (CN / PRC)
ManufacturerGESIH/SECM
MissionOperational Commercial Communications
Bus & MotorQIANFAN, Unknown motor
Mass300 kg wet, ~300 kg dry
Launch date (UTC)
2024-10-15 (4 months ago)
Launch vehicle
CHANG ZHENG 6A
Launch site
Taiyaun Space Center, China (TSC)
Object type
Payload
Rocket body
Debris
Shape & HBRBox + 1 Pan, 10 m
Radar Cross Section13.200 m², Large (>1 m²)

Expand to show TLE details & history

TLE from 15 hours ago
0 QIANFAN-24
1 61557U 24185F   25046.88625253  .00001020  00000-0  44440-3 0  9992
2 61557  88.9842 112.0960 0009770 184.4227 175.6880 14.23242115 27363
Epoch: 2025-02-15T21:16Z
Definitive object data (Epoch: 2025-02-15T21:16:12.218Z)
Latitude-0.00005°
Longitude6.91786°
Altitude824.475 km
Speed7.437 km/s
True Right ascension07h 28m 23s
True Declination0° 00' 00"
Sunlit
Object was in full shadow at TLE epoch
Visualization TLE readout
Latitude4.77341°
Longitude6.92886°
Altitude823.991 km
Speed7.438 km/s
Apparent Right ascension05h 48m 22s
Apparent Declination-18° 33' 38"
Sunlit
Object is in full shadow
Visualization observer readout
Local Sidereal Time15:15:15
Azimuth291.671° WNW
Elevation-50.806°
Doppler factor1
Orbital elements
Apogee altitude818.38 km
Perigee altitude804.332 km
Semi-major axis7,189.493 km
Eccentricity0.000977
Inclination88.9842°
RAAN112.096°
Arg. of periapsis184.4227°
True anomaly175.69641°
Mean anomaly175.688°
Eccentric anomaly175.6922°
Mean motion3.56038 °/min
BSTAR0.0004444
Orbital period101.11 mins
Loading maneuver chart data...
Loading historical data...
Loading historical data...
Loading historical data...
Loading historical data...
Loading historical data...
Loading historical data...
Loading historical data...

QIANFAN-24 Visibility forecast

Observer location: undefined°, undefined

Span
Click to sort rows by Start time (UTC) header in descending order
Start Az.
Max El. time (UTC)
Max El. Az.
Max El.
End time (UTC)
End Az.
9 mins2025-02-16 16:24:43.130Z5.056° NNE2025-02-16 16:29:43.130Z136.96° SSE43.303°2025-02-16 16:33:43.130Z175.606° S
7 mins2025-02-17 03:46:43.130Z130.071° SE2025-02-17 03:49:43.130Z86.909° E26.198°2025-02-17 03:53:43.130Z27.168° NE
8 mins2025-02-17 05:27:43.130Z223.285° SW2025-02-17 05:30:43.130Z267.567° W27.39°2025-02-17 05:35:43.130Z337.638° N
|